User: anonymous   Login
Location: Newark
(56.0692°N, 115.8617°E)
Time: 07:54:06
(UTC+00:00)
Language:

S-56A Canister/Altair - Orbit

View from above orbital plane
View from above orbital plane
View from above satellite
View from above satellite

Ground track
Ground track

The orbit data is extracted from the following two-line orbital elements,

1    82U 61004B   20146.75259123 -.00000013 +00000-0 +27503-4 0  9994
2    82 038.8599 282.4476 1174351 333.9932 020.6019 12.26063620805022
Epoch (UTC): 25 May 2020 18:03:43
Eccentricity: 0.1174351
inclination: 38.8599°
perigee height: 633 km
apogee height: 2499 km
right ascension of ascending node: 282.4476°
argument of perigee: 333.9932°
revolutions per day: 12.26063620
mean anomaly at epoch: 20.6019°
orbit number at epoch: 80502

The dashed part of the orbit path shows where the satellite is in the earth's shadow,  

DLR